Regional Weather Roundup
Issued by NWS

Home | Current Version | Previous Version | Text Only | Print | Product List | Glossary On
Versions: 1 2 3 4 5 6 7 8 9 10 11 12 13 14 15 16 17 18 19 20 21 22 23 24 25 26 27 28 29 30 31 32 33 34 35 36 37 38 39 40 41 42 43 44 45 46 47 48 49 50
000
ASUS43 KLMK 222110
RWRKY
KENTUCKY REGIONAL WEATHER ROUNDUP
NATIONAL WEATHER SERVICE LOUISVILLE KY
500 PM EDT SUN APR 22 2018

NOTE "FAIR" INDICATES FEW OR NO CLOUDS BELOW 12,000 FEET
WITH NO SIGNIFICANT WEATHER AND/OR OBSTRUCTIONS TO VISIBILITY.

KYZ001>023-026-027-061>063-070>075-222200-
WESTERN AND SOUTH CENTRAL KENTUCKY

CITY           SKY/WX    TMP DP  RH WIND       PRES   REMARKS
PADUCAH        RAIN      59  56  89 E14       29.99F FOG
HENDERSON      NOT AVBL
OWENSBORO      LGT RAIN  64  51  62 E16       30.08F
HOPKINSVILLE   RAIN      59  59 100 E18G25    30.00F FOG
BOWLING GREEN  LGT RAIN  61  58  90 E9        30.09F
GLASGOW        PTSUNNY   61  55  79 E7        30.11F
$$

KYZ024-025-028>034-038-045-046-053-222200-
NORTH CENTRAL KENTUCKY

CITY           SKY/WX    TMP DP  RH WIND       PRES   REMARKS
LOUISVILLE/SDF CLOUDY    72  43  35 SE13      30.11F
LOUISVILLE/LOU FAIR      71  44  37 E9        30.12F
FORT KNOX      CLOUDY    68  47  45 SE12      30.11F
$$

KYZ035>037-039>044-047>052-055>060-089>105-222200-
NORTHEAST KENTUCKY

CITY           SKY/WX    TMP DP  RH WIND       PRES   REMARKS
LEXINGTON      FAIR      69  41  36 NE14      30.15F
COVINGTON      CLOUDY    64  31  28 NE13      30.19F
FRANKFORT      FAIR      71  38  29 E10G17    30.13F
$$

KYZ054-064>069-076>088-106>120-222200-
SOUTHEAST KENTUCKY

CITY           SKY/WX    TMP DP  RH WIND       PRES   REMARKS
JACKSON        PTSUNNY   70  33  25 CALM      30.15F
LONDON         FAIR      71  36  27 VRB7      30.13F
SOMERSET       PTSUNNY   70  37  30 MISG      30.13F
MIDDLESBORO    PTSUNNY   71  47  42 SE8       30.15F
MONTICELLO     MOCLDY    69  49  48 SW16G23   30.14F
$$





USA.gov is the U.S. government's official web portal to all federal, state and local government web resources and services.